Temperature
23 24 24 24 24 24 24 24 23 23 23 22 22 22 22 21 20 20 20 19 19 18 18 17 16 16 16 16 16 16 16 15 15 15 15 15 15 15 14 14 14 14 14 14
24 24 24 24 23 23 24 23 23 23 22 22 22 22 22 21 20 20 20 19 19 18 18 17 16 16 16 16 16 16 16 15 15 15 15 15 14 14 14 14 14 14 14 14
24 24 23 23 23 23 23 23 23 23 22 22 22 22 22 21 20 19 19 19 18 18 17 17 16 16 16 16 16 16 16 15 15 15 15 14 14 14 14 14 14 14 14 14
23 23 23 23 23 23 23 23 22 22 22 23 22 22 22 22 21 20 19 19 18 17 17 17 16 15 15 15 15 15 15 15 15 15 14 14 14 14 14 14 14 14 13 13
23 23 23 23 23 23 23 22 22 22 22 22 22 22 23 22 21 21 20 18 18 17 16 16 16 15 15 15 15 15 15 15 15 14 14 14 14 14 14 13 13 13 13 13
23 22 22 23 22 22 22 22 22 22 22 22 22 22 22 22 22 21 20 18 17 16 16 16 15 15 15 15 15 15 14 14 14 14 14 14 14 13 13 13 13 13 13 13
22 22 22 22 22 22 22 22 22 22 22 22 22 22 22 22 21 20 19 18 17 16 16 15 15 15 14 14 14 14 14 14 14 14 14 13 13 13 13 13 13 13 13 13
22 22 22 22 22 22 22 23 22 21 22 22 21 22 22 21 19 19 18 18 17 16 15 15 15 14 14 14 14 14 14 14 14 14 13 13 13 13 13 13 13 13 12 12
22 22 21 21 21 22 22 22 22 22 22 21 22 22 21 20 20 19 18 17 16 15 15 15 14 14 14 14 13 13 13 13 13 13 13 13 13 13 13 13 13 12 12 12
22 21 21 20 21 20 21 22 21 21 21 21 21 22 22 20 20 19 18 17 16 15 15 14 14 14 14 14 13 13 13 13 13 13 13 13 13 13 12 12 12 12 12 12
21 21 21 21 21 21 20 21 21 21 21 21 21 22 22 21 20 19 18 17 16 15 14 14 13 13 13 13 13 13 13 13 13 13 13 13 12 12 12 12 12 12 12 12
20 21 21 21 20 20 21 21 21 20 20 20 20 21 20 20 19 18 18 16 15 14 14 13 13 13 13 13 13 13 12 12 12 12 12 12 12 12 12 12 12 12 12 12
19 20 20 20 20 19 20 20 20 20 20 20 20 21 20 19 18 17 17 16 15 14 14 13 13 12 12 12 12 12 12 12 12 12 12 12 12 12 11 11 11 11 11 11
18 20 20 20 20 20 19 19 19 19 20 20 20 20 20 19 19 17 16 15 15 14 14 13 13 12 12 12 12 12 12 12 12 11 11 11 11 11 11 11 11 11 11 11
19 19 19 19 19 18 18 19 18 19 20 20 20 20 20 20 19 17 16 15 14 14 13 13 13 12 12 11 11 11 11 11 11 11 11 11 11 11 11 11 11 11 11 11
18 19 19 18 18 18 18 18 18 18 19 19 19 19 20 18 17 16 15 15 14 14 13 13 12 12 12 11 11 11 11 11 11 10 10 10 10 10 10 10 10 10 10 10
18 18 18 19 18 18 18 19 18 18 18 19 18 19 19 18 17 16 15 14 14 13 13 12 12 12 11 11 11 11 10 10 10 10 10 10 10 10 10 10 10 10 10 10
18 18 18 18 18 17 19 18 18 18 18 18 18 18 17 17 16 15 14 14 13 13 12 12 12 11 11 11 11 10 10 10 10 10 10 10 10 10 9 9 10 10 10 10
17 17 17 17 17 18 18 17 17 17 18 18 17 17 16 15 15 15 14 13 13 12 12 12 11 11 11 10 10 10 10 10 9 9 9 9 9 9 9 9 9 9 9 9
15 16 17 16 16 17 18 17 16 17 17 17 16 16 16 15 16 16 14 13 12 12 12 11 11 11 10 10 10 10 9 9 9 9 9 9 9 9 9 9 9 9 9 9
15 15 16 16 16 17 17 16 16 17 17 16 15 15 15 15 16 14 13 12 12 12 11 11 11 10 10 10 9 9 9 9 9 9 9 9 8 8 8 8 8 8 8 8
16 16 15 16 15 16 16 16 16 17 16 15 15 14 14 14 13 12 12 11 11 11 11 10 10 10 10 9 9 9 9 8 8 8 8 8 8 8 8 8 8 8 8 8
16 16 16 16 16 16 14 15 14 14 14 14 14 13 13 12 12 11 11 11 11 10 10 10 10 9 9 9 9 8 8 8 8 8 8 7 7 7 7 7 7 7 7 7
15 14 15 15 16 15 14 13 13 13 13 13 12 12 12 12 11 11 11 10 10 10 10 10 9 9 9 8 8 8 8 8 8 7 7 7 7 7 7 7 7 7 7 6
15 14 14 15 15 14 14 13 13 12 12 12 12 12 11 11 11 11 10 10 10 9 9 9 9 8 8 8 8 8 7 7 7 7 7 7 6 6 6 6 6 6 6 6
14 14 14 15 15 15 14 13 12 12 12 12 11 11 11 11 11 10 10 10 9 9 9 9 8 8 8 8 7 7 7 7 7 7 6 6 6 6 6 6 6 6 6 6
Wind_Speed
3 5 5 5 4 4 4 5 4 2 1 3 3 3 2 1 1 2 1 1 2 1 1 2 2 1 2 2 1 1 2 2 2 2 2 2 1 1 1 1 1 1 1 1
6 5 3 2 3 4 5 6 4 2 1 3 3 3 2 1 2 2 1 0 1 1 1 2 2 2 2 1 1 1 1 2 3 2 2 2 2 1 1 1 1 1 1 1
6 1 2 4 5 5 6 6 5 4 2 3 4 3 2 2 2 2 1 0 0 0 1 2 2 2 1 1 1 0 1 2 2 3 2 2 2 1 1 1 1 1 0 1
4 2 3 5 5 6 5 2 4 5 6 4 4 4 2 3 3 3 2 1 0 1 1 2 2 2 1 1 1 1 1 2 2 3 3 3 2 1 1 1 0 1 0 0
3 3 3 4 4 5 2 0 3 5 6 6 5 6 2 3 3 2 2 1 1 1 1 1 1 2 1 2 2 1 1 2 2 2 2 2 2 1 0 1 1 1 1 0
3 2 3 3 2 3 3 3 3 4 6 7 5 6 3 3 2 1 2 2 1 1 1 2 2 2 2 2 2 2 2 2 2 2 2 2 2 1 1 0 0 0 0 1
5 4 3 2 4 4 5 5 4 5 5 4 1 5 3 2 2 1 1 2 2 2 1 2 2 2 2 2 2 2 2 2 1 1 2 2 2 2 2 1 1 1 1 1
5 5 3 2 4 4 5 7 6 5 5 3 3 5 1 3 2 1 1 2 2 2 2 2 2 2 2 2 1 1 1 1 1 1 1 1 1 1 1 2 2 2 2 2
3 3 2 0 2 4 5 6 5 6 6 7 5 3 2 3 2 2 2 2 2 2 1 2 2 2 2 2 1 1 1 1 1 0 1 1 1 1 1 2 2 2 2 2
3 4 2 1 3 1 2 2 4 5 5 6 6 6 3 4 3 2 1 1 1 1 1 1 1 2 2 1 1 1 0 0 1 1 0 1 1 1 1 2 2 2 2 2
4 5 3 4 5 4 3 4 5 5 6 6 6 2 1 1 1 2 2 1 1 1 1 1 1 1 1 1 1 1 0 0 1 1 1 1 1 2 2 2 2 2 2 3
3 4 5 4 1 2 5 5 6 6 6 6 7 3 4 1 1 1 2 2 1 1 1 1 1 1 1 1 1 1 1 1 1 1 1 2 2 2 2 2 2 3 2 2
3 4 5 4 4 4 4 5 6 7 7 8 8 4 4 0 1 1 2 2 2 2 1 1 1 0 0 1 1 1 1 1 2 2 2 2 2 2 2 2 2 3 2 3
3 5 7 7 5 3 6 7 8 9 9 10 11 11 6 5 4 3 3 3 3 3 2 2 1 1 1 1 1 1 1 1 1 2 2 2 2 2 3 2 2 2 2 3
4 6 7 8 7 6 9 10 10 13 13 12 11 11 10 8 7 5 4 4 3 3 3 3 2 2 1 1 1 2 2 1 1 2 2 3 3 2 2 2 2 2 2 2
3 5 6 8 6 7 10 11 12 13 13 13 13 13 8 6 4 4 4 4 4 4 3 3 3 3 2 2 2 2 2 2 2 2 3 3 3 2 2 1 1 2 2 2
4 5 6 8 6 8 10 9 9 8 8 9 11 9 5 5 4 5 4 5 5 4 3 3 3 3 3 2 2 2 2 2 2 2 3 3 3 3 2 2 2 2 2 2
6 6 5 6 6 8 3 0 3 7 8 8 8 7 6 6 4 4 4 4 4 4 3 3 3 3 3 2 2 2 2 2 2 3 3 3 3 3 3 2 2 2 2 2
7 6 5 5 7 9 5 3 3 6 6 5 6 6 4 3 4 4 3 3 4 4 4 3 3 3 2 2 2 2 2 2 3 3 4 4 3 3 3 3 3 2 2 2
4 6 7 6 7 7 2 1 1 4 6 2 4 4 3 3 6 4 2 2 3 3 2 2 2 2 2 2 2 2 2 3 3 3 4 4 4 4 3 3 3 2 2 2
4 5 8 9 8 7 2 1 3 5 2 1 3 4 5 6 6 4 3 4 3 2 2 2 2 2 2 2 3 3 3 3 3 4 4 4 4 3 3 3 2 2 2 2
5 5 7 7 8 6 2 3 3 4 4 4 5 5 6 6 5 4 4 3 3 2 2 2 2 2 2 2 3 3 3 3 3 4 3 3 3 3 2 3 2 2 2 2
6 5 4 5 5 2 2 4 4 6 6 6 6 6 5 6 5 5 4 3 3 3 3 3 2 2 2 2 3 4 3 3 4 4 3 3 3 2 2 2 2 2 2 2
5 4 5 6 8 7 6 7 7 7 7 6 5 5 5 6 5 5 4 4 4 3 3 3 3 3 3 3 3 4 4 4 4 4 4 3 3 2 2 2 2 2 3 3
6 5 6 9 9 7 7 7 7 6 6 6 5 5 5 5 6 5 5 4 4 4 3 3 4 4 4 3 4 4 4 4 4 4 4 3 3 3 3 3 2 3 3 3
7 8 8 8 7 7 7 6 7 6 6 6 5 5 5 5 6 5 5 4 4 4 4 4 5 4 4 4 4 3 3 4 5 4 4 3 3 2 3 3 2 1 2 2
Wind_Direction
182 207 213 219 237 265 260 261 268 276 264 251 267 282 296 251 234 235 226 217 217 215 96 86 97 109 142 138 136 138 166 172 167 167 164 153 145 138 121 96 80 105 110 108
192 211 232 227 212 228 243 253 262 251 202 258 277 285 290 240 222 235 256 250 209 158 98 93 101 100 80 101 119 127 163 172 172 173 166 160 149 153 111 102 114 130 123 119
219 182 183 205 207 227 242 253 264 262 253 227 266 252 217 176 179 185 222 265 102 94 125 120 115 92 76 47 16 143 147 157 161 157 150 148 140 142 134 128 100 85 68 128
219 213 205 222 231 246 251 255 250 240 247 249 252 270 229 193 182 187 189 188 109 115 122 117 115 112 87 55 27 28 139 149 157 163 170 169 163 172 186 195 161 139 114 32
201 205 222 234 245 247 262 172 228 241 254 260 242 259 225 184 216 206 187 164 116 99 96 112 115 119 89 77 67 62 100 121 139 160 163 185 177 165 149 158 140 115 142 155
227 225 244 249 240 228 175 181 188 217 243 251 248 254 248 211 225 124 106 115 121 98 89 94 94 97 95 85 83 75 87 108 118 151 167 183 185 167 151 164 99 16 209 188
203 194 189 223 215 186 214 241 245 231 228 247 190 251 251 89 71 89 98 93 105 107 99 86 92 88 94 95 98 97 87 96 142 172 188 200 204 206 210 222 230 253 239 235
221 202 173 214 245 241 232 244 257 272 271 272 215 248 149 103 92 105 104 93 98 100 95 93 99 102 88 94 107 119 106 108 110 175 208 225 212 224 238 244 243 246 253 256
242 217 142 254 268 250 230 235 272 276 278 274 247 238 188 152 140 122 110 102 97 100 96 100 94 91 89 75 83 152 141 109 83 42 225 227 234 226 254 249 244 247 256 262
269 253 206 172 186 74 278 231 229 248 267 266 258 250 237 185 189 173 160 136 112 111 99 104 102 84 80 72 71 89 167 113 45 28 316 245 266 257 268 262 254 245 244 251
254 252 218 202 223 230 197 212 239 250 263 277 280 266 67 146 192 208 199 180 146 141 123 107 98 85 73 71 80 68 18 308 335 332 320 275 270 268 258 270 268 264 252 246
238 257 252 234 208 275 238 236 234 250 254 258 278 287 100 94 344 236 209 195 183 165 144 128 111 85 52 30 33 358 319 323 301 294 297 292 284 261 252 260 265 265 268 259
214 246 254 221 191 190 221 229 238 254 262 254 258 265 118 44 321 255 230 220 207 190 175 158 138 128 8 351 341 333 301 316 321 295 281 295 302 280 263 250 261 267 268 267
234 244 254 268 293 254 242 236 233 240 252 257 254 273 274 280 279 262 252 238 225 209 206 213 219 238 266 303 309 316 318 320 321 314 287 284 296 296 279 259 262 265 266 266
234 253 256 269 277 266 264 259 243 243 253 262 272 275 283 286 278 263 251 237 227 225 225 231 235 244 255 283 300 316 323 321 313 300 294 277 281 294 291 272 268 262 262 264
230 254 263 261 254 261 264 261 253 251 255 258 268 275 284 289 275 253 242 234 233 237 243 247 248 254 255 265 278 290 306 311 297 294 293 284 277 282 273 279 282 285 278 271
218 244 264 268 268 271 260 256 241 239 240 249 260 275 285 278 264 252 253 241 237 243 248 246 250 255 261 266 269 273 282 288 291 297 297 297 290 273 268 270 267 271 274 276
232 239 255 273 271 253 266 94 247 245 254 253 264 280 282 281 283 269 257 248 252 256 256 251 251 254 259 262 269 277 275 277 288 296 297 294 295 286 270 264 263 267 266 264
231 232 244 254 261 268 259 235 237 245 258 257 259 272 280 287 272 261 236 244 262 263 259 253 253 252 250 249 253 261 275 285 286 296 302 296 287 278 274 269 270 270 268 271
203 226 238 241 256 261 270 124 248 254 253 232 251 260 258 262 270 278 265 262 271 267 262 258 253 254 246 240 243 248 266 284 290 297 297 295 291 277 271 271 270 275 276 276
194 209 228 242 253 263 315 134 216 242 299 26 274 270 260 265 291 304 278 270 269 259 257 254 250 248 247 237 237 247 262 279 295 302 298 298 295 284 276 274 266 271 278 278
222 217 223 229 239 252 118 173 229 299 330 305 287 279 268 275 295 283 270 268 263 251 244 250 255 263 253 240 241 252 270 291 298 298 295 296 299 296 285 276 274 268 266 262
228 231 238 231 247 315 205 248 287 301 295 299 293 285 268 269 275 270 260 253 247 243 244 247 245 250 255 248 252 259 272 286 288 289 288 289 291 293 286 272 266 266 258 255
231 237 240 249 255 263 266 267 272 280 285 292 289 281 266 268 269 262 255 244 238 239 245 242 235 240 252 261 263 264 268 271 272 277 282 284 285 293 290 282 272 264 258 254
244 219 243 257 266 274 269 267 269 277 281 285 285 277 266 263 262 256 251 244 240 242 243 242 240 243 250 253 262 263 260 265 271 275 274 271 270 275 282 284 283 272 270 279
232 231 243 260 269 269 281 288 285 276 272 271 272 276 272 263 263 258 253 246 243 240 242 245 248 252 255 254 258 264 265 262 266 269 268 260 256 261 267 278 298 308 280 309
Height
1524 1523 1523 1523 1523 1524 1525 1526 1528 1528 1529 1530 1530 1530 1530 1533 1534 1533 1533 1534 1535 1536 1536 1536 1535 1536 1536 1536 1536 1537 1538 1538 1538 1538 1539 1539 1539 1539 1540 1540 1540 1540 1540 1540
1523 1523 1523 1524 1525 1526 1525 1527 1528 1528 1529 1530 1529 1529 1529 1531 1532 1533 1533 1533 1534 1535 1535 1535 1535 1535 1535 1535 1536 1536 1536 1537 1537 1537 1538 1538 1538 1539 1539 1539 1539 1539 1539 1539
1521 1522 1524 1525 1525 1525 1524 1526 1526 1528 1529 1528 1529 1529 1527 1528 1531 1532 1533 1533 1533 1534 1534 1534 1534 1534 1534 1534 1535 1535 1535 1536 1536 1536 1537 1537 1537 1538 1538 1538 1538 1539 1539 1539
1521 1522 1524 1524 1523 1523 1525 1523 1526 1528 1528 1527 1529 1531 1524 1524 1527 1529 1531 1532 1532 1533 1533 1534 1534 1533 1533 1533 1533 1534 1534 1535 1535 1535 1536 1536 1536 1537 1537 1538 1538 1538 1538 1538
1521 1522 1523 1523 1523 1523 1523 1525 1526 1526 1525 1526 1525 1528 1522 1522 1524 1525 1528 1530 1532 1532 1533 1533 1533 1533 1533 1533 1532 1533 1533 1534 1534 1534 1535 1535 1536 1536 1536 1536 1537 1537 1537 1537
1521 1523 1523 1523 1524 1524 1525 1526 1526 1525 1524 1530 1524 1526 1523 1519 1521 1523 1527 1529 1531 1531 1532 1532 1532 1533 1533 1532 1532 1532 1532 1532 1532 1533 1534 1534 1534 1535 1535 1535 1535 1535 1535 1535
1522 1522 1523 1524 1523 1524 1523 1525 1530 1530 1530 1527 1523 1525 1521 1519 1522 1524 1527 1528 1530 1531 1531 1531 1531 1532 1532 1531 1531 1531 1531 1531 1531 1532 1532 1533 1533 1533 1534 1534 1533 1534 1534 1534
1523 1524 1522 1523 1522 1522 1521 1521 1530 1535 1530 1524 1524 1523 1518 1521 1524 1526 1527 1528 1529 1530 1530 1531 1531 1531 1531 1531 1531 1530 1530 1530 1530 1531 1531 1532 1532 1532 1532 1532 1532 1532 1532 1532
1522 1523 1522 1524 1523 1522 1521 1521 1520 1523 1524 1527 1519 1517 1517 1521 1523 1525 1526 1527 1528 1529 1529 1530 1530 1530 1530 1530 1530 1530 1530 1530 1529 1530 1530 1530 1530 1530 1530 1530 1530 1530 1530 1530
1520 1524 1522 1524 1524 1525 1523 1521 1523 1525 1530 1529 1522 1518 1515 1518 1520 1523 1525 1526 1527 1528 1529 1529 1529 1529 1529 1530 1529 1529 1529 1529 1528 1528 1528 1528 1528 1528 1528 1528 1528 1528 1528 1528
1521 1522 1522 1523 1523 1522 1525 1526 1523 1522 1523 1528 1526 1518 1512 1515 1518 1521 1524 1526 1527 1527 1528 1528 1528 1528 1528 1529 1528 1528 1528 1527 1527 1527 1526 1526 1526 1526 1526 1526 1526 1526 1526 1526
1523 1521 1520 1520 1522 1523 1522 1522 1522 1527 1525 1524 1525 1520 1514 1517 1519 1521 1523 1525 1526 1527 1527 1527 1527 1527 1527 1527 1527 1526 1526 1526 1525 1525 1524 1524 1524 1524 1524 1524 1524 1523 1523 1523
1524 1522 1524 1523 1526 1525 1523 1523 1523 1522 1523 1523 1525 1519 1516 1517 1519 1522 1523 1524 1525 1526 1526 1526 1526 1526 1526 1525 1525 1525 1524 1524 1523 1523 1522 1522 1522 1522 1522 1521 1521 1521 1521 1521
1525 1520 1523 1525 1520 1520 1522 1524 1524 1523 1522 1520 1518 1515 1513 1515 1518 1520 1522 1523 1524 1524 1525 1525 1525 1525 1525 1524 1524 1523 1522 1522 1521 1521 1520 1520 1519 1519 1519 1519 1518 1518 1518 1518
1524 1521 1519 1520 1520 1521 1521 1521 1521 1521 1517 1517 1512 1513 1512 1514 1516 1519 1520 1521 1522 1522 1523 1523 1523 1523 1523 1522 1522 1521 1520 1519 1519 1518 1518 1517 1517 1517 1516 1516 1515 1515 1515 1515
1523 1521 1520 1520 1519 1520 1520 1518 1517 1517 1515 1514 1514 1513 1512 1514 1515 1517 1518 1519 1519 1520 1520 1521 1521 1521 1521 1520 1520 1519 1518 1518 1517 1516 1516 1515 1515 1514 1513 1513 1513 1513 1512 1512
1521 1520 1521 1517 1516 1518 1516 1510 1511 1512 1511 1512 1512 1510 1511 1512 1514 1515 1515 1516 1516 1517 1518 1518 1518 1518 1518 1518 1518 1517 1516 1516 1515 1514 1513 1513 1512 1511 1511 1511 1510 1510 1509 1509
1520 1520 1520 1518 1518 1521 1509 1509 1510 1511 1510 1510 1510 1510 1511 1512 1513 1513 1514 1514 1515 1515 1515 1515 1515 1515 1516 1515 1515 1515 1514 1513 1513 1512 1511 1510 1509 1509 1508 1508 1507 1507 1507 1506
1520 1519 1519 1519 1517 1511 1507 1508 1510 1509 1508 1508 1509 1509 1510 1511 1511 1511 1512 1512 1513 1513 1513 1513 1513 1513 1513 1512 1512 1512 1512 1511 1511 1509 1508 1508 1507 1506 1505 1505 1505 1504 1504 1503
1521 1519 1518 1518 1520 1514 1506 1507 1509 1510 1506 1507 1508 1508 1509 1509 1507 1507 1509 1510 1510 1510 1510 1510 1510 1510 1510 1509 1509 1509 1509 1508 1508 1507 1506 1505 1504 1504 1503 1502 1502 1502 1501 1501
1518 1518 1518 1516 1516 1507 1505 1508 1509 1510 1505 1506 1507 1507 1508 1507 1506 1507 1507 1507 1507 1507 1507 1507 1507 1507 1507 1507 1507 1506 1506 1506 1505 1504 1503 1502 1501 1501 1500 1499 1499 1498 1498 1498
1511 1513 1514 1513 1515 1510 1506 1507 1507 1505 1505 1505 1505 1506 1506 1505 1505 1504 1504 1504 1504 1504 1504 1505 1505 1504 1504 1504 1504 1504 1503 1503 1502 1501 1500 1499 1498 1498 1497 1497 1496 1496 1496 1495
1508 1508 1506 1507 1506 1504 1506 1506 1506 1505 1505 1504 1504 1504 1503 1503 1502 1502 1501 1501 1501 1501 1501 1502 1502 1501 1501 1501 1501 1501 1500 1500 1499 1498 1498 1497 1496 1495 1495 1494 1493 1493 1492 1492
1506 1509 1507 1505 1502 1503 1504 1504 1504 1503 1503 1502 1502 1501 1500 1500 1499 1499 1498 1498 1498 1498 1498 1498 1498 1498 1498 1498 1498 1498 1497 1497 1496 1496 1495 1494 1493 1492 1492 1491 1491 1490 1489 1489
1503 1506 1504 1501 1500 1501 1500 1501 1501 1500 1500 1499 1498 1498 1497 1497 1496 1496 1495 1495 1495 1495 1495 1495 1495 1495 1495 1495 1494 1494 1494 1493 1493 1493 1492 1491 1490 1489 1489 1488 1487 1487 1487 1486
1501 1501 1500 1497 1497 1498 1497 1497 1497 1497 1496 1496 1495 1494 1494 1494 1493 1493 1492 1492 1491 1491 1492 1492 1492 1492 1492 1491 1491 1491 1491 1490 1490 1489 1488 1488 1487 1486 1486 1485 1484 1483 1483 1483